Location: Владивосток
(43.1151°N, 131.8856°E)
Time: 16:58:49
(UTC+10:00)

COSMOS 2251 DEB - Visible Passes

Search period start: 16 July 2024 00:00
Search period end: 26 July 2024 00:00
Orbit: 769 x 791 km, 74.0° (Epoch: 15 July)

Date Brightness Start Highest point End Pass type
(mag) Time Alt. Az. Time Alt. Az. Time Alt. Az.
16 Jul ? 03:00:30 10° N 03:05:18 32° ENE 03:10:05 10° SE visible
16 Jul ? 04:42:48 10° NW 04:47:36 34° W 04:52:24 10° SSW visible
17 Jul ? 02:27:35 10° N 02:31:44 22° ENE 02:35:52 10° ESE visible
17 Jul ? 04:09:11 10° NNW 04:14:24 54° WSW 04:19:36 10° S visible
18 Jul ? 01:54:57 10° NNE 01:58:04 15° NE 02:01:11 10° E visible
18 Jul ? 03:35:45 10° NNW 03:41:07 84° WSW 03:45:44 14° SSE visible
19 Jul ? 01:23:26 10° NE 01:24:19 10° NE 01:25:11 10° ENE visible
19 Jul ? 03:02:26 10° NNW 03:07:46 64° ENE 03:11:47 18° SE visible
19 Jul ? 04:46:11 10° NW 04:49:31 17° W 04:52:13 12° SW visible
20 Jul ? 02:29:15 10° N 02:34:21 41° ENE 02:38:02 17° SE visible
20 Jul ? 04:12:02 10° NW 04:16:26 26° W 04:18:29 21° SW visible
21 Jul ? 01:56:14 10° N 02:00:50 28° ENE 02:04:25 14° ESE visible
21 Jul ? 03:38:16 10° NW 03:43:17 41° WSW 03:44:52 33° SW visible
22 Jul ? 01:23:24 10° N 01:27:13 19° NE 01:30:54 10° E visible
22 Jul ? 03:04:44 10° NNW 03:10:02 65° WSW 03:11:23 48° SSW visible
23 Jul ? 00:50:59 10° NNE 00:53:31 13° NE 00:56:04 10° ENE visible
23 Jul ? 02:31:20 10° NNW 02:36:44 83° ENE 02:37:58 55° SSE visible
23 Jul ? 04:16:04 10° WNW 04:18:16 13° W 04:18:26 13° W visible
24 Jul ? 01:58:05 10° NNW 02:03:21 54° ENE 02:04:38 43° ESE visible
24 Jul ? 03:41:24 10° NW 03:45:07 20° W 03:45:07 20° W visible
25 Jul ? 01:24:57 10° N 01:29:53 35° ENE 01:31:22 30° E visible
25 Jul ? 03:07:26 10° NW 03:11:51 31° W 03:11:51 31° W visible
